Regional Weather Roundup
Issued by NWS

Home | Current Version | Previous Version | Graphics & Text | Print | Product List | Glossary On
Versions: 1 2 3 4 5 6 7 8 9 10 11 12 13 14 15 16 17 18 19 20 21 22 23 24 25 26 27 28 29 30 31 32 33 34 35 36 37 38 39 40 41 42 43 44 45 46 47 48 49 50
000
ASUS43 KFSD 290910
RWRSD

WEATHER ROUNDUP FOR SOUTH DAKOTA
NATIONAL WEATHER SERVICE SIOUX FALLS SD
400 AM CDT MON MAY 29 2017

NOTE: "FAIR" INDICATES FEW OR NO CLOUDS BELOW 12,000 FEET WITH NO
SIGNIFICANT WEATHER AND/OR OBSTRUCTIONS TO VISIBILITY.


SDZ001>005-009-010-012>017-291000-
NORTHWEST AND NORTH CENTRAL SOUTH DAKOTA

CITY           SKY/WX    TMP DP  RH WIND       PRES   REMARKS
BUFFALO          N/A     43  34  70 NW9       30.06S
FAITH            N/A     42  36  79 W10       30.07S
MOBRIDGE       CLEAR     48  39  71 NW10      29.97S
$$

SDZ012>016-024>037-041>051-057-063-072>074-291000-
SOUTHWEST AND SOUTH CENTRAL SOUTH DAKOTA

CITY           SKY/WX    TMP DP  RH WIND       PRES   REMARKS
RAPID CTY ARPT CLEAR     45  36  70 N12       30.12R
PIERRE         PTCLDY    50  39  66 NW12      30.00S
CUSTER         CLEAR     44  30  57 NW5       30.17F
ELLSWORTH AFB  CLEAR     44  38  79 N6        30.12R
PHILIP         CLEAR     42  37  82 W5        30.07S
PINE RIDGE     CLEAR     47  44  90 W3        30.11F
SPEARFISH      FAIR      48  32  53 NW6       30.16R
WINNER         FAIR      50  44  80 NW8       30.02R
$$

SDZ004>011-016>023-039-040-291000-
NORTHEAST SOUTH DAKOTA

CITY           SKY/WX    TMP DP  RH WIND       PRES   REMARKS
ABERDEEN       CLEAR     49  40  71 NW14      29.91R
WATERTOWN      PTCLDY    48  44  86 NW9       29.87S
BROOKINGS      CLEAR     50  44  80 NW13      29.88S
SISSETON         N/A     53  47  79 NW14      29.82F
$$

SDZ017-020-022-023-036>040-048>070-291000-
SOUTHEAST SOUTH DAKOTA

CITY           SKY/WX    TMP DP  RH WIND       PRES   REMARKS
SIOUX FALLS    CLEAR     51  44  77 W5        29.89F
HURON          CLEAR     49  43  80 NW14      29.93R
CHAMBERLAIN    PTCLDY    51  45  82 NW7       29.99S
MITCHELL       CLEAR     51  45  79 NW8       29.95R
YANKTON        MOCLDY    50  47  89 NW9       29.93R
$$

ABBREVIATIONS USED IN REMARKS
   TC - TEMPERATURE IN CELSIUS
  WCI - WIND CHILL INDEX
   HX - HEAT INDEX
  VSB - VISIBILITY





USA.gov is the U.S. government's official web portal to all federal, state and local government web resources and services.